loading
|

MIDAS 3 DEB, 25793

Orbit data source: Space-Track

MIDAS 3 DEB, 25793 is space debris originally from a launch on Wed, 12 Jul 1961 UTC launched from the Air Force Western Test Range (AFWTR). Debris objects in space refer to the collection of defunct objects orbiting the Earth. Examples of debris include non-operational satellites, rocket bodies, and fragments generated from explosions, collisions, or faulty payload assembly.

Loading next visibility...
Loading greatness...
MIDAS 3 DEB details
Identifier
25793, 1961-018F
Orbit
Active
Last TLE update5 days ago
Origin
Flag of USUSAF SSD (US)
ManufacturerUnknown
MissionSpacecraft
Bus & MotorUnknown bus, Unknown motor
MassUnknown
Launch date (UTC)
1961-07-12 (63 years ago)
Launch vehicleUnknown
Launch site
Air Force Western Test Range (AFWTR)
Object type
Payload
Rocket body
Debris
Shape & HBRUnknown
Radar Cross SectionMedium (>0.1 m² and <1 m²)

Expand to show TLE details & history

TLE from 5 days ago
0 MIDAS 3 DEB
1 25793U 61018F   24274.72144185  .00000009  00000-0  26744-2 0  9997
2 25793  91.1412 191.8977 0126275  32.2975 328.5555  8.93197915346197
Epoch: 2024-09-30T17:18Z
Definitive object data (Epoch: 2024-09-30T17:18:52.575Z)
Latitude-0°
Longitude-77.76681°
Altitude3,331.098 km
Speed6.442 km/s
True Right ascension12h 47m 35s
True Declination0° 00' 00"
Sunlit
Object was in daylight at TLE epoch
Predictive object data (real-time)
Latitude70.50569°
Longitude105.67373°
Altitude3,429.535 km
Speed6.387 km/s
Apparent Right ascension02h 40m 13s
Apparent Declination33° 51' 01"
Sunlit
Object is in daylight
Predictive observer data (real-time)
Local Sidereal Time15:45:15
Azimuth13.908° NNE
Elevation-14.72°
Doppler factor1
Orbital elements
Apogee3,555.786 km
Perigee3,308.033 km
Semi-major axis9,810.047 km
Eccentricity0.0126275
Inclination91.1412°
RAAN191.8977°
Arg. of periapsis32.2975°
True anomaly327.79036°
Mean anomaly328.5555°
Eccentric anomaly328.17397°
Mean motion2.23376 °/min
BSTAR0.0026744
Period161.16 mins
No data available
No data available

MIDAS 3 DEB Visibility forecast

Observer location: 39.9160978°, -105.1181434

MIDAS 3 DEB is not visible in the next 10 days
Span
Click to sort rows by Start time (UTC) header in descending order
Start Az.
Max El. time (UTC)
Max El. Az.
Max El.
End time (UTC)
End Az.